Time,TemperatureF,DewpointF,PressureIn,WindDirection,WindDirectionDegrees,WindSpeedMPH,WindSpeedGustMPH,Humidity,HourlyPrecipIn,Conditions,Clouds,dailyrainin,SoftwareType,DateUTC
2013-11-28 00:05:00,23.0,17.5,30.17,NW,311,1.0,2.0,79,0.00,,,0.00,Wunderground v.1.15,2013-11-28 05:05:00,
2013-11-28 00:10:00,22.9,17.4,30.17,NW,313,1.0,1.0,79,0.00,,,0.00,Wunderground v.1.15,2013-11-28 05:10:00,
2013-11-28 00:15:00,22.9,17.4,30.17,WNW,301,1.0,1.0,79,0.00,,,0.00,Wunderground v.1.15,2013-11-28 05:15:00,
2013-11-28 00:25:00,22.6,17.1,30.17,North,349,1.0,1.0,79,0.00,,,0.00,Wunderground v.1.15,2013-11-28 05:25:00,
2013-11-28 00:30:00,22.6,16.8,30.17,North,360,1.0,1.0,78,0.00,,,0.00,Wunderground v.1.15,2013-11-28 05:30:00,
2013-11-28 00:40:00,22.5,16.7,30.17,North,11,1.0,2.0,78,0.00,,,0.00,Wunderground v.1.15,2013-11-28 05:40:00,
2013-11-28 00:45:00,22.5,16.4,30.17,NNE,14,2.0,2.0,77,0.00,,,0.00,Wunderground v.1.15,2013-11-28 05:45:00,
2013-11-28 00:50:00,22.4,16.3,30.18,NNW,342,1.0,1.0,77,0.00,,,0.00,Wunderground v.1.15,2013-11-28 05:50:00,
2013-11-28 00:55:00,22.3,16.2,30.18,NNW,342,1.0,3.0,77,0.00,,,0.00,Wunderground v.1.15,2013-11-28 05:55:00,
2013-11-28 01:00:00,22.2,16.4,30.18,NNE,27,2.0,2.0,78,0.00,,,0.00,Wunderground v.1.15,2013-11-28 06:00:00,
2013-11-28 01:05:00,22.1,16.6,30.18,North,355,1.0,2.0,79,0.00,,,0.00,Wunderground v.1.15,2013-11-28 06:05:00,
2013-11-28 01:15:00,21.8,16.0,30.18,North,9,1.0,4.0,78,0.00,,,0.00,Wunderground v.1.15,2013-11-28 06:15:00,
2013-11-28 01:20:00,21.9,15.8,30.19,NNE,21,1.0,2.0,77,0.00,,,0.00,Wunderground v.1.15,2013-11-28 06:20:00,
2013-11-28 01:25:00,22.0,15.6,30.19,North,360,2.0,2.0,76,0.00,,,0.00,Wunderground v.1.15,2013-11-28 06:25:00,
2013-11-28 01:30:00,22.0,15.6,30.19,North,360,2.0,2.0,76,0.00,,,0.00,Wunderground v.1.15,2013-11-28 06:30:00,
2013-11-28 01:40:00,21.9,15.8,30.20,ENE,69,1.0,3.0,77,0.00,,,0.00,Wunderground v.1.15,2013-11-28 06:40:00,
2013-11-28 01:45:00,21.9,15.8,30.20,North,355,1.0,3.0,77,0.00,,,0.00,Wunderground v.1.15,2013-11-28 06:45:00,
2013-11-28 01:55:00,21.7,15.6,30.21,NNE,17,0.0,1.0,77,0.00,,,0.00,Wunderground v.1.15,2013-11-28 06:55:00,
2013-11-28 02:00:00,21.6,15.5,30.21,NW,318,0.0,0.0,77,0.00,,,0.00,Wunderground v.1.15,2013-11-28 07:00:00,
2013-11-28 02:05:00,21.6,15.5,30.22,ENE,60,1.0,4.0,77,0.00,,,0.00,Wunderground v.1.15,2013-11-28 07:05:00,
2013-11-28 02:10:00,21.7,15.9,30.22,ENE,74,1.0,1.0,78,0.00,,,0.00,Wunderground v.1.15,2013-11-28 07:10:00,
2013-11-28 02:15:00,21.6,15.8,30.22,NNE,21,1.0,1.0,78,0.00,,,0.00,Wunderground v.1.15,2013-11-28 07:15:00,
2013-11-28 02:25:00,21.3,15.8,30.23,NNE,21,0.0,1.0,79,0.00,,,0.00,Wunderground v.1.15,2013-11-28 07:25:00,
2013-11-28 02:30:00,21.3,15.5,30.23,NW,325,0.0,0.0,78,0.00,,,0.00,Wunderground v.1.15,2013-11-28 07:30:00,
2013-11-28 02:40:00,21.1,15.3,30.24,NW,325,0.0,0.0,78,0.00,,,0.00,Wunderground v.1.15,2013-11-28 07:40:00,
2013-11-28 02:45:00,21.0,15.5,30.24,ENE,63,0.0,0.0,79,0.00,,,0.00,Wunderground v.1.15,2013-11-28 07:45:00,
2013-11-28 02:50:00,20.9,15.7,30.24,NNE,26,1.0,2.0,80,0.00,,,0.00,Wunderground v.1.15,2013-11-28 07:50:00,
2013-11-28 02:55:00,20.9,16.0,30.24,NNE,25,1.0,2.0,81,0.00,,,0.00,Wunderground v.1.15,2013-11-28 07:55:00,
2013-11-28 03:00:00,20.8,16.2,30.24,NNE,26,0.0,0.0,82,0.00,,,0.00,Wunderground v.1.15,2013-11-28 08:00:00,
2013-11-28 03:10:00,20.7,15.8,30.25,NNW,344,0.0,0.0,81,0.00,,,0.00,Wunderground v.1.15,2013-11-28 08:10:00,
2013-11-28 03:15:00,20.8,15.6,30.25,SE,139,0.0,0.0,80,0.00,,,0.00,Wunderground v.1.15,2013-11-28 08:15:00,
2013-11-28 03:20:00,20.9,15.7,30.26,South,175,0.0,0.0,80,0.00,,,0.00,Wunderground v.1.15,2013-11-28 08:20:00,
2013-11-28 03:25:00,20.9,16.0,30.26,ENE,61,0.0,0.0,81,0.00,,,0.00,Wunderground v.1.15,2013-11-28 08:25:00,
2013-11-28 03:30:00,20.9,16.0,30.26,ENE,60,0.0,0.0,81,0.00,,,0.00,Wunderground v.1.15,2013-11-28 08:30:00,
2013-11-28 03:35:00,20.8,16.2,30.27,NNE,22,0.0,0.0,82,0.00,,,0.00,Wunderground v.1.15,2013-11-28 08:35:00,
2013-11-28 03:40:00,20.6,16.3,30.27,NNE,22,0.0,0.0,83,0.00,,,0.00,Wunderground v.1.15,2013-11-28 08:40:00,
2013-11-28 03:45:00,20.5,16.2,30.27,NNE,22,0.0,0.0,83,0.00,,,0.00,Wunderground v.1.15,2013-11-28 08:45:00,
2013-11-28 03:50:00,20.3,16.0,30.26,NNE,22,0.0,0.0,83,0.00,,,0.00,Wunderground v.1.15,2013-11-28 08:50:00,
2013-11-28 03:55:00,20.2,16.4,30.26,NNE,22,0.0,0.0,85,0.00,,,0.00,Wunderground v.1.15,2013-11-28 08:55:00,
2013-11-28 04:00:00,20.1,16.3,30.26,NNE,21,1.0,1.0,85,0.00,,,0.00,Wunderground v.1.15,2013-11-28 09:00:00,
2013-11-28 04:05:00,20.0,16.2,30.26,NNE,21,1.0,1.0,85,0.00,,,0.00,Wunderground v.1.15,2013-11-28 09:05:00,
2013-11-28 04:10:00,19.8,15.7,30.26,NNE,21,0.0,2.0,84,0.00,,,0.00,Wunderground v.1.15,2013-11-28 09:10:00,
2013-11-28 04:20:00,19.8,16.0,30.27,NNE,21,1.0,1.0,85,0.00,,,0.00,Wunderground v.1.15,2013-11-28 09:20:00,
2013-11-28 04:25:00,19.9,15.8,30.27,NNE,21,0.0,1.0,84,0.00,,,0.00,Wunderground v.1.15,2013-11-28 09:25:00,
2013-11-28 04:30:00,19.9,15.8,30.27,NNE,21,0.0,0.0,84,0.00,,,0.00,Wunderground v.1.15,2013-11-28 09:30:00,
2013-11-28 04:35:00,19.8,15.7,30.27,NNE,21,0.0,0.0,84,0.00,,,0.00,Wunderground v.1.15,2013-11-28 09:35:00,
2013-11-28 04:45:00,19.7,15.6,30.27,NNE,21,0.0,0.0,84,0.00,,,0.00,Wunderground v.1.15,2013-11-28 09:45:00,
2013-11-28 04:50:00,19.7,15.9,30.28,NNE,21,0.0,0.0,85,0.00,,,0.00,Wunderground v.1.15,2013-11-28 09:50:00,
2013-11-28 04:55:00,19.7,15.6,30.28,NNE,21,0.0,0.0,84,0.00,,,0.00,Wunderground v.1.15,2013-11-28 09:55:00,
2013-11-28 05:00:00,19.8,15.5,30.28,NNE,21,0.0,0.0,83,0.00,,,0.00,Wunderground v.1.15,2013-11-28 10:00:00,
2013-11-28 05:05:00,19.8,15.7,30.28,NNE,21,0.0,0.0,84,0.00,,,0.00,Wunderground v.1.15,2013-11-28 10:05:00,
2013-11-28 05:10:00,19.8,15.5,30.28,NNE,21,0.0,0.0,83,0.00,,,0.00,Wunderground v.1.15,2013-11-28 10:10:00,
2013-11-28 05:20:00,19.8,15.5,30.28,NNE,21,0.0,0.0,83,0.00,,,0.00,Wunderground v.1.15,2013-11-28 10:20:00,
2013-11-28 05:25:00,19.7,15.6,30.28,NNE,21,0.0,0.0,84,0.00,,,0.00,Wunderground v.1.15,2013-11-28 10:25:00,
2013-11-28 05:30:00,19.7,15.4,30.28,NNE,21,0.0,0.0,83,0.00,,,0.00,Wunderground v.1.15,2013-11-28 10:30:00,
2013-11-28 05:40:00,19.7,15.6,30.29,NNE,21,0.0,0.0,84,0.00,,,0.00,Wunderground v.1.15,2013-11-28 10:40:00,
2013-11-28 05:50:00,19.7,15.9,30.30,NNE,21,0.0,0.0,85,0.00,,,0.00,Wunderground v.1.15,2013-11-28 10:50:00,
2013-11-28 05:55:00,19.7,15.9,30.30,NNE,21,0.0,0.0,85,0.00,,,0.00,Wunderground v.1.15,2013-11-28 10:55:00,
2013-11-28 06:00:00,19.7,15.6,30.30,NNE,21,0.0,0.0,84,0.00,,,0.00,Wunderground v.1.15,2013-11-28 11:00:00,
2013-11-28 06:05:00,19.7,15.9,30.31,NNE,21,0.0,0.0,85,0.00,,,0.00,Wunderground v.1.15,2013-11-28 11:05:00,
2013-11-28 06:10:00,19.7,15.6,30.31,NNE,21,0.0,0.0,84,0.00,,,0.00,Wunderground v.1.15,2013-11-28 11:10:00,
2013-11-28 06:15:00,19.7,15.6,30.31,NNE,21,0.0,0.0,84,0.00,,,0.00,Wunderground v.1.15,2013-11-28 11:15:00,
2013-11-28 06:20:00,19.7,15.9,30.32,NNE,21,0.0,0.0,85,0.00,,,0.00,Wunderground v.1.15,2013-11-28 11:20:00,
2013-11-28 06:25:00,19.7,15.9,30.32,NNE,21,0.0,0.0,85,0.00,,,0.00,Wunderground v.1.15,2013-11-28 11:25:00,
2013-11-28 06:30:00,19.5,15.7,30.32,NNE,21,0.0,0.0,85,0.00,,,0.00,Wunderground v.1.15,2013-11-28 11:30:00,
2013-11-28 06:40:00,19.5,15.5,30.32,NNE,21,0.0,0.0,84,0.00,,,0.00,Wunderground v.1.15,2013-11-28 11:40:00,
2013-11-28 06:50:00,19.7,15.6,30.32,NNE,21,0.0,0.0,84,0.00,,,0.00,Wunderground v.1.15,2013-11-28 11:50:00,
2013-11-28 06:55:00,19.7,15.6,30.32,NNE,21,0.0,0.0,84,0.00,,,0.00,Wunderground v.1.15,2013-11-28 11:55:00,
2013-11-28 07:00:00,19.7,15.4,30.32,NNE,21,0.0,0.0,83,0.00,,,0.00,Wunderground v.1.15,2013-11-28 12:00:00,
2013-11-28 07:05:00,19.7,15.4,30.32,NNE,21,0.0,0.0,83,0.00,,,0.00,Wunderground v.1.15,2013-11-28 12:05:00,
2013-11-28 07:10:00,19.7,15.9,30.32,NNE,21,0.0,0.0,85,0.00,,,0.00,Wunderground v.1.15,2013-11-28 12:10:00,
2013-11-28 07:15:00,19.7,15.6,30.32,NNE,21,0.0,0.0,84,0.00,,,0.00,Wunderground v.1.15,2013-11-28 12:15:00,
2013-11-28 07:20:00,19.7,15.9,30.33,NNE,21,0.0,0.0,85,0.00,,,0.00,Wunderground v.1.15,2013-11-28 12:20:00,
2013-11-28 07:25:00,19.7,15.4,30.33,NNE,21,0.0,0.0,83,0.00,,,0.00,Wunderground v.1.15,2013-11-28 12:25:00,
2013-11-28 07:35:00,19.8,15.7,30.33,NNE,21,0.0,0.0,84,0.00,,,0.00,Wunderground v.1.15,2013-11-28 12:35:00,
2013-11-28 07:40:00,19.8,15.5,30.33,NNE,21,0.0,0.0,83,0.00,,,0.00,Wunderground v.1.15,2013-11-28 12:40:00,
2013-11-28 07:50:00,20.0,15.7,30.35,NNE,21,0.0,0.0,83,0.00,,,0.00,Wunderground v.1.15,2013-11-28 12:50:00,
2013-11-28 07:55:00,20.2,15.6,30.35,SSW,211,0.0,0.0,82,0.00,,,0.00,Wunderground v.1.15,2013-11-28 12:55:00,
2013-11-28 08:05:00,20.6,15.7,30.35,SSW,211,0.0,1.0,81,0.00,,,0.00,Wunderground v.1.15,2013-11-28 13:05:00,
2013-11-28 08:10:00,20.7,15.8,30.35,SSW,210,0.0,0.0,81,0.00,,,0.00,Wunderground v.1.15,2013-11-28 13:10:00,
2013-11-28 08:15:00,20.7,15.8,30.35,SSW,210,0.0,1.0,81,0.00,,,0.00,Wunderground v.1.15,2013-11-28 13:15:00,
2013-11-28 08:20:00,20.8,15.9,30.36,SSW,211,0.0,0.0,81,0.00,,,0.00,Wunderground v.1.15,2013-11-28 13:20:00,
2013-11-28 08:25:00,20.9,16.0,30.36,SSW,209,0.0,0.0,81,0.00,,,0.00,Wunderground v.1.15,2013-11-28 13:25:00,
2013-11-28 08:35:00,21.1,16.2,30.36,SSW,207,1.0,1.0,81,0.00,,,0.00,Wunderground v.1.15,2013-11-28 13:35:00,
2013-11-28 08:40:00,21.2,16.3,30.36,SSW,206,1.0,1.0,81,0.00,,,0.00,Wunderground v.1.15,2013-11-28 13:40:00,
2013-11-28 08:50:00,21.4,16.2,30.37,SSW,199,1.0,1.0,80,0.00,,,0.00,Wunderground v.1.15,2013-11-28 13:50:00,
2013-11-28 08:55:00,21.5,16.3,30.37,SSW,199,1.0,1.0,80,0.00,,,0.00,Wunderground v.1.15,2013-11-28 13:55:00,
2013-11-28 09:00:00,21.6,16.1,30.37,SSW,199,0.0,2.0,79,0.00,,,0.00,Wunderground v.1.15,2013-11-28 14:00:00,
2013-11-28 09:05:00,21.9,16.4,30.38,SSW,199,0.0,2.0,79,0.00,,,0.00,Wunderground v.1.15,2013-11-28 14:05:00,
2013-11-28 09:10:00,22.0,16.5,30.38,SSW,199,0.0,0.0,79,0.00,,,0.00,Wunderground v.1.15,2013-11-28 14:10:00,
2013-11-28 09:15:00,22.1,16.6,30.38,SSW,199,0.0,1.0,79,0.00,,,0.00,Wunderground v.1.15,2013-11-28 14:15:00,
2013-11-28 09:20:00,22.2,16.7,30.39,SSW,199,0.0,0.0,79,0.00,,,0.00,Wunderground v.1.15,2013-11-28 14:20:00,
2013-11-28 09:25:00,22.3,16.8,30.39,SSW,199,0.0,0.0,79,0.00,,,0.00,Wunderground v.1.15,2013-11-28 14:25:00,
2013-11-28 09:30:00,22.4,16.6,30.39,SSW,199,0.0,0.0,78,0.00,,,0.00,Wunderground v.1.15,2013-11-28 14:30:00,
2013-11-28 09:40:00,22.9,17.7,30.39,SSW,199,0.0,1.0,80,0.00,,,0.00,Wunderground v.1.15,2013-11-28 14:40:00,
2013-11-28 09:45:00,23.2,17.7,30.39,SSW,199,0.0,1.0,79,0.00,,,0.00,Wunderground v.1.15,2013-11-28 14:45:00,
2013-11-28 09:50:00,23.5,17.9,30.39,SSW,199,0.0,0.0,79,0.00,,,0.00,Wunderground v.1.15,2013-11-28 14:50:00,
2013-11-28 09:55:00,24.0,18.7,30.39,SSW,199,0.0,0.0,80,0.00,,,0.00,Wunderground v.1.15,2013-11-28 14:55:00,
2013-11-28 10:00:00,24.5,18.9,30.39,SSW,199,0.0,0.0,79,0.00,,,0.00,Wunderground v.1.15,2013-11-28 15:00:00,
2013-11-28 10:10:00,25.8,19.3,30.40,SSW,199,0.0,0.0,76,0.00,,,0.00,Wunderground v.1.15,2013-11-28 15:10:00,
2013-11-28 10:15:00,26.3,19.5,30.40,SSW,199,0.0,0.0,75,0.00,,,0.00,Wunderground v.1.15,2013-11-28 15:15:00,
2013-11-28 10:20:00,26.8,19.3,30.39,SSW,199,0.0,0.0,73,0.00,,,0.00,Wunderground v.1.15,2013-11-28 15:20:00,
2013-11-28 10:25:00,27.5,19.7,30.39,SSW,199,0.0,0.0,72,0.00,,,0.00,Wunderground v.1.15,2013-11-28 15:25:00,
2013-11-28 10:30:00,28.6,19.7,30.39,SSW,199,0.0,0.0,69,0.00,,,0.00,Wunderground v.1.15,2013-11-28 15:30:00,
2013-11-28 10:40:00,30.1,21.2,30.39,SSW,199,0.0,0.0,69,0.00,,,0.00,Wunderground v.1.15,2013-11-28 15:40:00,
2013-11-28 10:45:00,30.8,21.1,30.39,SSW,199,0.0,0.0,67,0.00,,,0.00,Wunderground v.1.15,2013-11-28 15:45:00,
2013-11-28 10:50:00,31.2,20.1,30.39,South,191,0.0,0.0,63,0.00,,,0.00,Wunderground v.1.15,2013-11-28 15:50:00,
2013-11-28 11:00:00,31.3,19.0,30.39,South,190,0.0,0.0,60,0.00,,,0.00,Wunderground v.1.15,2013-11-28 16:00:00,
2013-11-28 11:05:00,31.3,19.4,30.39,ESE,113,0.0,0.0,61,0.00,,,0.00,Wunderground v.1.15,2013-11-28 16:05:00,
2013-11-28 11:15:00,32.0,19.3,30.39,ESE,114,0.0,0.0,59,0.00,,,0.00,Wunderground v.1.15,2013-11-28 16:15:00,
2013-11-28 11:20:00,32.9,22.0,30.39,ESE,114,0.0,0.0,64,0.00,,,0.00,Wunderground v.1.15,2013-11-28 16:20:00,
2013-11-28 11:30:00,34.4,20.7,30.39,ESE,114,0.0,0.0,57,0.00,,,0.00,Wunderground v.1.15,2013-11-28 16:30:00,
2013-11-28 11:35:00,34.4,21.1,30.38,ESE,114,0.0,0.0,58,0.00,,,0.00,Wunderground v.1.15,2013-11-28 16:35:00,
2013-11-28 11:45:00,34.4,21.5,30.38,ESE,113,0.0,0.0,59,0.00,,,0.00,Wunderground v.1.15,2013-11-28 16:45:00,
2013-11-28 11:55:00,35.2,17.9,30.38,ESE,114,0.0,0.0,49,0.00,,,0.00,Wunderground v.1.15,2013-11-28 16:55:00,
2013-11-28 12:00:00,36.1,18.3,30.38,ESE,114,0.0,0.0,48,0.00,,,0.00,Wunderground v.1.15,2013-11-28 17:00:00,
2013-11-28 12:05:00,36.8,19.4,30.37,ESE,114,0.0,0.0,49,0.00,,,0.00,Wunderground v.1.15,2013-11-28 17:05:00,
2013-11-28 12:10:00,37.5,19.6,30.37,ESE,114,0.0,0.0,48,0.00,,,0.00,Wunderground v.1.15,2013-11-28 17:10:00,
2013-11-28 12:15:00,38.0,19.5,30.37,ESE,114,0.0,0.0,47,0.00,,,0.00,Wunderground v.1.15,2013-11-28 17:15:00,
2013-11-28 12:20:00,38.4,20.4,30.36,ESE,114,0.0,0.0,48,0.00,,,0.00,Wunderground v.1.15,2013-11-28 17:20:00,
2013-11-28 12:25:00,38.9,20.9,30.36,SE,145,0.0,0.0,48,0.00,,,0.00,Wunderground v.1.15,2013-11-28 17:25:00,
2013-11-28 12:30:00,39.3,23.1,30.36,SE,146,0.0,0.0,52,0.00,,,0.00,Wunderground v.1.15,2013-11-28 17:30:00,
2013-11-28 12:35:00,39.6,23.9,30.36,SE,145,0.0,0.0,53,0.00,,,0.00,Wunderground v.1.15,2013-11-28 17:35:00,
2013-11-28 12:40:00,39.9,25.9,30.36,SE,145,0.0,0.0,57,0.00,,,0.00,Wunderground v.1.15,2013-11-28 17:40:00,
2013-11-28 12:45:00,40.0,25.6,30.36,SE,146,0.0,1.0,56,0.00,,,0.00,Wunderground v.1.15,2013-11-28 17:45:00,
2013-11-28 12:50:00,39.9,26.3,30.35,SE,146,0.0,0.0,58,0.00,,,0.00,Wunderground v.1.15,2013-11-28 17:50:00,
2013-11-28 12:55:00,40.1,23.4,30.35,SE,146,0.0,1.0,51,0.00,,,0.00,Wunderground v.1.15,2013-11-28 17:55:00,
2013-11-28 13:00:00,40.5,21.8,30.35,SE,146,0.0,0.0,47,0.00,,,0.00,Wunderground v.1.15,2013-11-28 18:00:00,
2013-11-28 13:10:00,41.5,24.7,30.34,SE,145,0.0,0.0,51,0.00,,,0.00,Wunderground v.1.15,2013-11-28 18:10:00,
2013-11-28 13:15:00,41.6,24.8,30.34,SE,146,0.0,0.0,51,0.00,,,0.00,Wunderground v.1.15,2013-11-28 18:15:00,
2013-11-28 13:20:00,41.6,28.3,30.34,SE,145,0.0,0.0,59,0.00,,,0.00,Wunderground v.1.15,2013-11-28 18:20:00,
2013-11-28 13:30:00,41.5,29.0,30.34,SE,146,0.0,0.0,61,0.00,,,0.00,Wunderground v.1.15,2013-11-28 18:30:00,
2013-11-28 13:35:00,41.6,25.3,30.33,SE,146,0.0,0.0,52,0.00,,,0.00,Wunderground v.1.15,2013-11-28 18:35:00,
2013-11-28 13:40:00,41.8,23.5,30.33,SE,145,0.0,0.0,48,0.00,,,0.00,Wunderground v.1.15,2013-11-28 18:40:00,
2013-11-28 13:45:00,42.0,28.7,30.33,SE,146,0.0,0.0,59,0.00,,,0.00,Wunderground v.1.15,2013-11-28 18:45:00,
2013-11-28 13:50:00,41.9,29.4,30.33,SE,145,0.0,0.0,61,0.00,,,0.00,Wunderground v.1.15,2013-11-28 18:50:00,
2013-11-28 13:55:00,42.1,24.3,30.33,SSE,168,0.0,0.0,49,0.00,,,0.00,Wunderground v.1.15,2013-11-28 18:55:00,
2013-11-28 14:05:00,43.3,23.9,30.33,East,83,1.0,2.0,46,0.00,,,0.00,Wunderground v.1.15,2013-11-28 19:05:00,
2013-11-28 14:10:00,43.8,26.3,30.33,WNW,285,0.0,1.0,50,0.00,,,0.00,Wunderground v.1.15,2013-11-28 19:10:00,
2013-11-28 14:15:00,44.0,29.3,30.33,West,267,0.0,1.0,56,0.00,,,0.00,Wunderground v.1.15,2013-11-28 19:15:00,
2013-11-28 14:20:00,44.1,29.4,30.33,West,266,0.0,1.0,56,0.00,,,0.00,Wunderground v.1.15,2013-11-28 19:20:00,
2013-11-28 14:30:00,43.7,28.1,30.33,West,264,0.0,1.0,54,0.00,,,0.00,Wunderground v.1.15,2013-11-28 19:30:00,
2013-11-28 14:35:00,43.7,29.0,30.33,West,272,1.0,1.0,56,0.00,,,0.00,Wunderground v.1.15,2013-11-28 19:35:00,
2013-11-28 14:45:00,44.0,30.2,30.33,West,266,1.0,1.0,58,0.00,,,0.00,Wunderground v.1.15,2013-11-28 19:45:00,
2013-11-28 14:50:00,43.8,29.1,30.33,West,265,1.0,1.0,56,0.00,,,0.00,Wunderground v.1.15,2013-11-28 19:50:00,
2013-11-28 14:55:00,43.5,28.4,30.33,South,180,0.0,1.0,55,0.00,,,0.00,Wunderground v.1.15,2013-11-28 19:55:00,
2013-11-28 15:05:00,43.3,29.5,30.34,SSW,211,1.0,1.0,58,0.00,,,0.00,Wunderground v.1.15,2013-11-28 20:05:00,
2013-11-28 15:10:00,43.3,28.6,30.34,SSW,202,1.0,1.0,56,0.00,,,0.00,Wunderground v.1.15,2013-11-28 20:10:00,
2013-11-28 15:15:00,43.3,30.3,30.34,SSW,203,1.0,1.0,60,0.00,,,0.00,Wunderground v.1.15,2013-11-28 20:15:00,
2013-11-28 15:20:00,42.8,29.5,30.34,SSW,202,1.0,1.0,59,0.00,,,0.00,Wunderground v.1.15,2013-11-28 20:20:00,
2013-11-28 15:25:00,42.4,30.7,30.34,SSW,202,1.0,1.0,63,0.00,,,0.00,Wunderground v.1.15,2013-11-28 20:25:00,
2013-11-28 15:35:00,41.7,29.6,30.34,South,184,1.0,1.0,62,0.00,,,0.00,Wunderground v.1.15,2013-11-28 20:35:00,
2013-11-28 15:40:00,41.5,29.0,30.34,SSW,196,1.0,1.0,61,0.00,,,0.00,Wunderground v.1.15,2013-11-28 20:40:00,
2013-11-28 15:50:00,41.1,29.8,30.34,SSW,195,1.0,1.0,64,0.00,,,0.00,Wunderground v.1.15,2013-11-28 20:50:00,
2013-11-28 15:55:00,40.9,29.3,30.34,SSW,194,1.0,1.0,63,0.00,,,0.00,Wunderground v.1.15,2013-11-28 20:55:00,
2013-11-28 16:00:00,40.6,29.7,30.34,SSW,194,1.0,2.0,65,0.00,,,0.00,Wunderground v.1.15,2013-11-28 21:00:00,
2013-11-28 16:05:00,40.1,29.3,30.35,SSW,194,1.0,3.0,65,0.00,,,0.00,Wunderground v.1.15,2013-11-28 21:05:00,
2013-11-28 16:15:00,39.3,29.6,30.35,SSW,194,1.0,1.0,68,0.00,,,0.00,Wunderground v.1.15,2013-11-28 21:15:00,
2013-11-28 16:20:00,38.7,29.0,30.35,SSW,194,1.0,2.0,68,0.00,,,0.00,Wunderground v.1.15,2013-11-28 21:20:00,
2013-11-28 16:25:00,38.4,29.1,30.35,SSW,194,1.0,2.0,69,0.00,,,0.00,Wunderground v.1.15,2013-11-28 21:25:00,
2013-11-28 16:30:00,38.1,28.8,30.35,SSW,194,1.0,1.0,69,0.00,,,0.00,Wunderground v.1.15,2013-11-28 21:30:00,
2013-11-28 16:35:00,37.9,29.0,30.36,SSW,194,1.0,1.0,70,0.00,,,0.00,Wunderground v.1.15,2013-11-28 21:35:00,
2013-11-28 16:40:00,37.8,29.2,30.36,SSW,194,1.0,1.0,71,0.00,,,0.00,Wunderground v.1.15,2013-11-28 21:40:00,
2013-11-28 16:45:00,37.7,29.1,30.36,SSW,194,1.0,2.0,71,0.00,,,0.00,Wunderground v.1.15,2013-11-28 21:45:00,
2013-11-28 16:55:00,37.1,28.9,30.36,SSW,194,1.0,1.0,72,0.00,,,0.00,Wunderground v.1.15,2013-11-28 21:55:00,
2013-11-28 17:00:00,36.5,28.7,30.36,SSW,194,0.0,0.0,73,0.00,,,0.00,Wunderground v.1.15,2013-11-28 22:00:00,
2013-11-28 17:05:00,36.0,28.8,30.37,SSW,194,1.0,1.0,75,0.00,,,0.00,Wunderground v.1.15,2013-11-28 22:05:00,
2013-11-28 17:10:00,35.7,28.6,30.37,SSW,194,1.0,1.0,75,0.00,,,0.00,Wunderground v.1.15,2013-11-28 22:10:00,
2013-11-28 17:20:00,35.2,28.1,30.37,SSW,194,0.0,1.0,75,0.00,,,0.00,Wunderground v.1.15,2013-11-28 22:20:00,
2013-11-28 17:30:00,35.4,27.6,30.37,SSW,194,0.0,0.0,73,0.00,,,0.00,Wunderground v.1.15,2013-11-28 22:30:00,
2013-11-28 17:35:00,35.3,27.5,30.39,SSW,194,1.0,1.0,73,0.00,,,0.00,Wunderground v.1.15,2013-11-28 22:35:00,
2013-11-28 17:40:00,35.2,27.4,30.39,SSW,194,0.0,0.0,73,0.00,,,0.00,Wunderground v.1.15,2013-11-28 22:40:00,
2013-11-28 17:45:00,34.9,27.5,30.39,SSW,194,0.0,1.0,74,0.00,,,0.00,Wunderground v.1.15,2013-11-28 22:45:00,
2013-11-28 17:50:00,34.6,27.2,30.39,SSW,194,0.0,1.0,74,0.00,,,0.00,Wunderground v.1.15,2013-11-28 22:50:00,
2013-11-28 17:55:00,34.4,27.9,30.39,SSW,194,0.0,1.0,77,0.00,,,0.00,Wunderground v.1.15,2013-11-28 22:55:00,
2013-11-28 18:05:00,33.5,27.7,30.40,SSW,194,0.0,1.0,79,0.00,,,0.00,Wunderground v.1.15,2013-11-28 23:05:00,
2013-11-28 18:15:00,33.4,27.6,30.40,SSW,194,1.0,1.0,79,0.00,,,0.00,Wunderground v.1.15,2013-11-28 23:15:00,
2013-11-28 18:20:00,33.2,27.7,30.40,SSW,194,0.0,0.0,80,0.00,,,0.00,Wunderground v.1.15,2013-11-28 23:20:00,
2013-11-28 18:25:00,32.9,27.7,30.40,SSW,194,0.0,0.0,81,0.00,,,0.00,Wunderground v.1.15,2013-11-28 23:25:00,
2013-11-28 18:30:00,32.5,27.6,30.40,SSW,194,0.0,0.0,82,0.00,,,0.00,Wunderground v.1.15,2013-11-28 23:30:00,
2013-11-28 18:35:00,32.3,27.4,30.41,SSW,194,0.0,0.0,82,0.00,,,0.00,Wunderground v.1.15,2013-11-28 23:35:00,
2013-11-28 18:40:00,32.1,27.2,30.41,SSW,194,0.0,0.0,82,0.00,,,0.00,Wunderground v.1.15,2013-11-28 23:40:00,
2013-11-28 18:45:00,32.0,27.4,30.41,SSW,194,0.0,0.0,83,0.00,,,0.00,Wunderground v.1.15,2013-11-28 23:45:00,
2013-11-28 18:50:00,31.9,27.3,30.41,SSW,194,0.0,0.0,83,0.00,,,0.00,Wunderground v.1.15,2013-11-28 23:50:00,
2013-11-28 18:55:00,31.6,26.7,30.41,SSW,194,0.0,0.0,82,0.00,,,0.00,Wunderground v.1.15,2013-11-28 23:55:00,
2013-11-28 19:05:00,31.4,27.1,30.41,SSW,194,0.0,0.0,84,0.00,,,0.00,Wunderground v.1.15,2013-11-29 00:05:00,
2013-11-28 19:10:00,31.3,27.0,30.41,SSW,194,0.0,0.0,84,0.00,,,0.00,Wunderground v.1.15,2013-11-29 00:10:00,
2013-11-28 19:15:00,31.1,27.1,30.41,SSW,194,0.0,0.0,85,0.00,,,0.00,Wunderground v.1.15,2013-11-29 00:15:00,
2013-11-28 19:20:00,30.8,26.8,30.41,SSW,194,0.0,0.0,85,0.00,,,0.00,Wunderground v.1.15,2013-11-29 00:20:00,
2013-11-28 19:25:00,30.7,26.7,30.41,SSW,194,0.0,0.0,85,0.00,,,0.00,Wunderground v.1.15,2013-11-29 00:25:00,
2013-11-28 19:30:00,30.5,26.8,30.41,SSW,194,0.0,0.0,86,0.00,,,0.00,Wunderground v.1.15,2013-11-29 00:30:00,
2013-11-28 19:35:00,30.2,26.8,30.42,SSW,194,0.0,0.0,87,0.00,,,0.00,Wunderground v.1.15,2013-11-29 00:35:00,
2013-11-28 19:45:00,29.9,26.5,30.42,SSW,194,0.0,0.0,87,0.00,,,0.00,Wunderground v.1.15,2013-11-29 00:45:00,
2013-11-28 19:50:00,29.7,26.3,30.42,SSW,194,0.0,0.0,87,0.00,,,0.00,Wunderground v.1.15,2013-11-29 00:50:00,
2013-11-28 19:55:00,29.7,26.0,30.42,SSW,194,0.0,0.0,86,0.00,,,0.00,Wunderground v.1.15,2013-11-29 00:55:00,
2013-11-28 20:00:00,29.8,26.1,30.42,SSW,194,0.0,0.0,86,0.00,,,0.00,Wunderground v.1.15,2013-11-29 01:00:00,
2013-11-28 20:05:00,29.8,26.1,30.43,SSW,194,0.0,0.0,86,0.00,,,0.00,Wunderground v.1.15,2013-11-29 01:05:00,
2013-11-28 20:10:00,29.6,26.2,30.43,SSW,194,0.0,0.0,87,0.00,,,0.00,Wunderground v.1.15,2013-11-29 01:10:00,
2013-11-28 20:15:00,29.6,26.2,30.43,SSW,194,0.0,0.0,87,0.00,,,0.00,Wunderground v.1.15,2013-11-29 01:15:00,
2013-11-28 20:20:00,29.4,26.0,30.43,SSW,194,0.0,0.0,87,0.00,,,0.00,Wunderground v.1.15,2013-11-29 01:20:00,
2013-11-28 20:30:00,29.5,26.1,30.43,SSW,194,0.0,0.0,87,0.00,,,0.00,Wunderground v.1.15,2013-11-29 01:30:00,
2013-11-28 20:40:00,29.7,26.0,30.44,SSW,194,0.0,0.0,86,0.00,,,0.00,Wunderground v.1.15,2013-11-29 01:40:00,
2013-11-28 20:45:00,29.7,25.7,30.44,SSW,194,0.0,0.0,85,0.00,,,0.00,Wunderground v.1.15,2013-11-29 01:45:00,
2013-11-28 20:50:00,29.8,25.6,30.44,SSW,194,0.0,0.0,84,0.00,,,0.00,Wunderground v.1.15,2013-11-29 01:50:00,
2013-11-28 20:55:00,29.8,25.6,30.44,SSW,194,0.0,0.0,84,0.00,,,0.00,Wunderground v.1.15,2013-11-29 01:55:00,
2013-11-28 21:00:00,29.7,25.7,30.44,SSW,194,0.0,0.0,85,0.00,,,0.00,Wunderground v.1.15,2013-11-29 02:00:00,
2013-11-28 21:05:00,29.6,25.9,30.44,SSW,194,0.0,0.0,86,0.00,,,0.00,Wunderground v.1.15,2013-11-29 02:05:00,
2013-11-28 21:10:00,29.6,25.6,30.44,SSW,194,0.0,0.0,85,0.00,,,0.00,Wunderground v.1.15,2013-11-29 02:10:00,
2013-11-28 21:15:00,29.5,25.8,30.44,SSW,194,0.0,0.0,86,0.00,,,0.00,Wunderground v.1.15,2013-11-29 02:15:00,
2013-11-28 21:20:00,29.3,25.9,30.45,SSW,194,0.0,0.0,87,0.00,,,0.00,Wunderground v.1.15,2013-11-29 02:20:00,
2013-11-28 21:30:00,28.8,25.4,30.45,SSW,194,0.0,0.0,87,0.00,,,0.00,Wunderground v.1.15,2013-11-29 02:30:00,
2013-11-28 21:40:00,28.5,25.4,30.45,SSW,194,0.0,0.0,88,0.00,,,0.00,Wunderground v.1.15,2013-11-29 02:40:00,
2013-11-28 21:45:00,28.5,25.4,30.45,SSW,194,0.0,0.0,88,0.00,,,0.00,Wunderground v.1.15,2013-11-29 02:45:00,
2013-11-28 21:50:00,28.4,25.3,30.45,SSW,194,0.0,0.0,88,0.00,,,0.00,Wunderground v.1.15,2013-11-29 02:50:00,
2013-11-28 21:55:00,28.3,24.9,30.45,SSW,194,0.0,0.0,87,0.00,,,0.00,Wunderground v.1.15,2013-11-29 02:55:00,
2013-11-28 22:00:00,28.2,24.8,30.45,SSW,194,0.0,0.0,87,0.00,,,0.00,Wunderground v.1.15,2013-11-29 03:00:00,
2013-11-28 22:05:00,28.0,24.6,30.44,SSW,194,0.0,0.0,87,0.00,,,0.00,Wunderground v.1.15,2013-11-29 03:05:00,
2013-11-28 22:10:00,27.9,24.8,30.44,SSW,194,0.0,0.0,88,0.00,,,0.00,Wunderground v.1.15,2013-11-29 03:10:00,
2013-11-28 22:15:00,27.8,25.0,30.44,SSW,194,0.0,0.0,89,0.00,,,0.00,Wunderground v.1.15,2013-11-29 03:15:00,
2013-11-28 22:20:00,27.8,25.0,30.45,SSW,194,0.0,0.0,89,0.00,,,0.00,Wunderground v.1.15,2013-11-29 03:20:00,
2013-11-28 22:25:00,27.8,25.0,30.45,SSW,194,0.0,0.0,89,0.00,,,0.00,Wunderground v.1.15,2013-11-29 03:25:00,
2013-11-28 22:35:00,27.8,24.7,30.45,SSW,194,0.0,0.0,88,0.00,,,0.00,Wunderground v.1.15,2013-11-29 03:35:00,
2013-11-28 22:40:00,27.6,24.8,30.45,SSW,194,0.0,0.0,89,0.00,,,0.00,Wunderground v.1.15,2013-11-29 03:40:00,
2013-11-28 22:50:00,27.5,24.7,30.45,SSW,194,0.0,0.0,89,0.00,,,0.00,Wunderground v.1.15,2013-11-29 03:50:00,
2013-11-28 22:55:00,27.7,25.2,30.45,SSW,194,0.0,0.0,90,0.00,,,0.00,Wunderground v.1.15,2013-11-29 03:55:00,
2013-11-28 23:00:00,27.8,25.0,30.45,SSW,194,0.0,0.0,89,0.00,,,0.00,Wunderground v.1.15,2013-11-29 04:00:00,
2013-11-28 23:05:00,27.6,24.8,30.45,SSW,194,0.0,0.0,89,0.00,,,0.00,Wunderground v.1.15,2013-11-29 04:05:00,
2013-11-28 23:10:00,27.5,24.7,30.45,SSW,194,0.0,0.0,89,0.00,,,0.00,Wunderground v.1.15,2013-11-29 04:10:00,
2013-11-28 23:15:00,27.2,24.4,30.45,SSW,194,0.0,0.0,89,0.00,,,0.00,Wunderground v.1.15,2013-11-29 04:15:00,
2013-11-28 23:20:00,27.2,24.7,30.45,SSW,194,0.0,0.0,90,0.00,,,0.00,Wunderground v.1.15,2013-11-29 04:20:00,
2013-11-28 23:30:00,27.4,24.9,30.45,SSW,194,0.0,0.0,90,0.00,,,0.00,Wunderground v.1.15,2013-11-29 04:30:00,
2013-11-28 23:35:00,27.6,24.8,30.45,SSW,194,0.0,0.0,89,0.00,,,0.00,Wunderground v.1.15,2013-11-29 04:35:00,
2013-11-28 23:45:00,27.7,24.9,30.45,SSW,194,0.0,0.0,89,0.00,,,0.00,Wunderground v.1.15,2013-11-29 04:45:00,
2013-11-28 23:50:00,27.6,24.8,30.45,SSW,194,0.0,0.0,89,0.00,,,0.00,Wunderground v.1.15,2013-11-29 04:50:00,
2013-11-28 23:55:00,27.5,24.7,30.45,SSW,194,0.0,0.0,89,0.00,,,0.00,Wunderground v.1.15,2013-11-29 04:55:00,